Regional Weather Roundup
Issued by NWS Nashville, TN

Home | Current Version | Previous Version | Text Only | Print | Product List | Glossary On
Versions: 1 2 3 4 5 6 7 8 9 10 11 12 13 14 15 16 17 18 19 20 21 22 23 24 25 26 27 28 29 30 31 32 33 34 35 36 37 38 39 40 41 42 43 44 45 46 47 48 49 50
000
ASUS44 KOHX 030700
RWROHX
MIDDLE TENNESSEE HOURLY WEATHER ROUNDUP
NATIONAL WEATHER SERVICE NASHVILLE TN
200 AM CDT WED SEP 03 2014

NOTE: "FAIR" INDICATES FEW OR NO CLOUDS BELOW 12,000 FEET WITH
NO SIGNIFICANT WEATHER AND/OR OBSTRUCTIONS TO VISIBILITY.

* THESE REPORTS ARE NOT UNDER NWS QUALITY CONTROL AND MAY NOT
  REPORT WEATHER SUCH AS PRECIPITATION AND FOG.


TNZ005>011-023>034-057-059-062>066-078-080-030800
...NORTHERN MIDDLE TENNESSEE...

CITY           SKY/WX    TMP DP  RH WIND       PRES   REMARKS
CLARKSVILLE    CLOUDY    71  70  96 CALM      30.00F FOG
CROSSVILLE     MOCLDY    70  66  87 S5        30.09F
NASHVILLE      CLOUDY    73  71  93 S3        30.00F
SPARTA         MOCLDY    70  70 100 S3        30.04R
$$
TNZ056-058-060-061-075>077-079-093>097-030800
...SOUTHERN MIDDLE TENNESSEE...

CITY           SKY/WX    TMP DP  RH WIND       PRES   REMARKS
COLUMBIA         N/A     73  73 100 CALM      30.01F
FAYETTEVILLE   CLEAR     72  72 100 CALM      30.02F
MCMINNVILLE    CLOUDY    72  72 100 CALM      30.05R
SHELBYVILLE    MOCLDY    73  73 100 NE3       30.02F
TULLAHOMA      CLEAR     72  70  94 CALM      30.03F
WINCHESTER     CLEAR     72  72 100 CALM      30.03F
$$


...KEY TO REMARKS...
VSB - VISIBILITY IN MILES
WCI - WIND CHILL INDEX
HX  - HEAT INDEX




USA.gov is the U.S. government's official web portal to all federal, state and local government web resources and services.